Regional Weather Roundup
Issued by NWS

Home | Current Version | Previous Version | Text Only | Print | Product List | Glossary Off
Versions: 1 2 3 4 5 6 7 8 9 10 11 12 13 14 15 16 17 18 19 20 21 22 23 24 25 26 27 28 29 30 31 32 33 34 35 36 37 38 39 40 41 42 43 44 45 46 47 48 49 50

000
ASUS43 KFSD 222210
RWRSD

WEATHER ROUNDUP FOR SOUTH DAKOTA
NATIONAL WEATHER SERVICE SIOUX FALLS SD
400 PM CST SAT NOV 22 2014

NOTE: "FAIR" INDICATES FEW OR NO CLOUDS BELOW 12,000 FEET WITH NO
SIGNIFICANT WEATHER AND/OR OBSTRUCTIONS TO VISIBILITY.


SDZ001>005-009-010-012>017-222300-
NORTHWEST AND NORTH CENTRAL SOUTH DAKOTA

CITY           SKY/WX    TMP DP  RH WIND       PRES   REMARKS
BUFFALO          N/A     48  34  58 W9        29.33R
FAITH            N/A     49  28  44 W9        29.38R
MOBRIDGE       CLOUDY    44  32  62 CALM      29.36R
$$

SDZ012>016-024>037-041>051-057-063-072>074-222300-
SOUTHWEST AND SOUTH CENTRAL SOUTH DAKOTA

CITY           SKY/WX    TMP DP  RH WIND       PRES   REMARKS
RAPID CTY ARPT CLOUDY    52  29  41 SW7       29.39S
PIERRE         MOCLDY    42  32  67 CALM      29.38R
CUSTER         PTSUNNY   42  25  50 W13G26    29.46S
ELLSWORTH AFB  CLOUDY    53  30  42 W10       29.39S
PHILIP         CLOUDY    60  32  34 W6        29.39S
PINE RIDGE     CLOUDY    49  29  46 W8        29.46F
SPEARFISH      FAIR      48  27  43 W10G22    29.40S
WINNER         FAIR      59  29  31 W17       29.42R
$$

SDZ004>011-016>023-039-040-222300-
NORTHEAST SOUTH DAKOTA

CITY           SKY/WX    TMP DP  RH WIND       PRES   REMARKS
ABERDEEN       CLEAR     37  31  78 S13       29.40S
WATERTOWN      PTCLDY    35  31  85 S17       29.44F WCI  25
SISSETON         N/A     36  32  85 S14       29.44F
$$

SDZ017-020-022-023-036>040-048>070-222300-
SOUTHEAST SOUTH DAKOTA

CITY           SKY/WX    TMP DP  RH WIND       PRES   REMARKS
SIOUX FALLS    MOCLDY    43  36  76 S13       29.52F
HURON          PTCLDY    43  34  70 S15G21    29.41F
CHAMBERLAIN    PTCLDY    51  33  50 SW10      29.40R
MITCHELL       MOCLDY    50  37  61 S13       29.43F
YANKTON        MOCLDY    52  36  54 S15       29.52F
$$

ABBREVIATIONS USED IN REMARKS
   TC - TEMPERATURE IN CELSIUS
  WCI - WIND CHILL INDEX
   HX - HEAT INDEX
  VSB - VISIBILITY




USA.gov is the U.S. government's official web portal to all federal, state and local government web resources and services.